| time (UTC) | temp F | wind direction | speed MPH | gust MPH | rain 1hr in | rain 24hr in | rain mn in | humidity % | barometer mb |
| 20260906220736 | 75 | 62 | 5.0 | 12.0 | 0.00 | 0.00 | 0.00 | 68 | 1018.1 |
| 20260906215704 | 76 | 66 | 7.0 | 11.0 | 0.00 | 0.00 | 0.00 | 66 | 1018.1 |
| 20260906214703 | 76 | 69 | 5.0 | 12.0 | 0.00 | 0.00 | 0.00 | 65 | 1018.1 |
| 20260906213702 | 76 | 88 | 3.0 | 12.0 | 0.00 | 0.00 | 0.00 | 67 | 1017.7 |
| 20260906212701 | 76 | 72 | 5.0 | 11.0 | 0.00 | 0.00 | 0.00 | 65 | 1017.7 |
| 20260906211629 | 76 | 93 | 4.0 | 11.0 | 0.00 | 0.00 | 0.00 | 65 | 1017.7 |
| 20260906210629 | 76 | 87 | 3.0 | 17.0 | 0.00 | 0.00 | 0.00 | 67 | 1017.7 |
| 20260906205628 | 76 | 63 | 7.0 | 17.0 | 0.00 | 0.00 | 0.00 | 65 | 1017.4 |
| 20260906204627 | 75 | 44 | 9.0 | 13.0 | 0.00 | 0.00 | 0.00 | 68 | 1017.4 |
| 20260906203626 | 75 | 82 | 6.0 | 14.0 | 0.00 | 0.00 | 0.00 | 67 | 1017.4 |
| 20260906202625 | 76 | 87 | 4.0 | 13.0 | 0.00 | 0.00 | 0.00 | 67 | 1017.4 |
| 20260906201624 | 76 | 74 | 6.0 | 13.0 | 0.00 | 0.00 | 0.00 | 65 | 1017.4 |
| 20260906200623 | 76 | 60 | 6.0 | 13.0 | 0.00 | 0.00 | 0.00 | 68 | 1017.4 |
| 20260906195622 | 76 | 75 | 7.0 | 16.0 | 0.00 | 0.00 | 0.00 | 66 | 1017.4 |
| 20260906194622 | 76 | 102 | 5.0 | 16.0 | 0.00 | 0.00 | 0.00 | 64 | 1017.4 |
| 20260906193621 | 76 | 75 | 5.0 | 13.0 | 0.00 | 0.00 | 0.00 | 66 | 1017.4 |
| 20260906192548 | 76 | 100 | 4.0 | 17.0 | 0.00 | 0.00 | 0.00 | 67 | 1017.5 |
| 20260906191548 | 77 | 60 | 8.0 | 17.0 | 0.00 | 0.00 | 0.00 | 63 | 1017.5 |
| 20260906190546 | 77 | 78 | 6.0 | 13.0 | 0.00 | 0.00 | 0.00 | 62 | 1017.8 |
| 20260906185545 | 77 | 73 | 4.0 | 14.0 | 0.00 | 0.00 | 0.00 | 65 | 1017.9 |
| 20260906184544 | 77 | 68 | 6.0 | 14.0 | 0.00 | 0.00 | 0.00 | 60 | 1017.9 |
| 20260906183543 | 77 | 77 | 4.0 | 14.0 | 0.00 | 0.00 | 0.00 | 58 | 1017.9 |
| 20260906182543 | 78 | 76 | 4.0 | 11.0 | 0.00 | 0.00 | 0.00 | 59 | 1017.9 |
| 20260906181542 | 78 | 82 | 5.0 | 12.0 | 0.00 | 0.00 | 0.00 | 58 | 1018.2 |
| 20260906180510 | 77 | 61 | 6.0 | 12.0 | 0.00 | 0.00 | 0.00 | 61 | 1018.2 |
| 20260906175508 | 76 | 52 | 4.0 | 13.0 | 0.00 | 0.00 | 0.00 | 66 | 1018.5 |
| 20260906174436 | 76 | 39 | 8.0 | 13.0 | 0.00 | 0.00 | 0.00 | 64 | 1018.2 |
| 20260906173435 | 76 | 73 | 5.0 | 11.0 | 0.00 | 0.00 | 0.00 | 62 | 1018.2 |
| 20260906172434 | 77 | 93 | 4.0 | 11.0 | 0.00 | 0.00 | 0.00 | 62 | 1018.5 |
| 20260906171403 | 75 | 89 | 6.0 | 11.0 | 0.00 | 0.00 | 0.00 | 61 | 1018.5 |
| 20260906170402 | 74 | 104 | 2.0 | 8.0 | 0.00 | 0.00 | 0.00 | 68 | 1018.4 |
| 20260906165401 | 74 | 73 | 4.0 | 10.0 | 0.00 | 0.00 | 0.00 | 67 | 1018.4 |
| 20260906164401 | 75 | 69 | 4.0 | 12.0 | 0.00 | 0.00 | 0.00 | 64 | 1018.5 |
| 20260906163400 | 75 | 52 | 5.0 | 12.0 | 0.00 | 0.00 | 0.00 | 68 | 1018.5 |
| 20260906162359 | 75 | 75 | 4.0 | 12.0 | 0.00 | 0.00 | 0.00 | 67 | 1018.5 |
| 20260906161357 | 75 | 69 | 5.0 | 11.0 | 0.00 | 0.00 | 0.00 | 67 | 1018.5 |
| 20260906160324 | 74 | 87 | 4.0 | 10.0 | 0.00 | 0.00 | 0.00 | 68 | 1018.5 |
| 20260906155324 | 74 | 95 | 3.0 | 10.0 | 0.00 | 0.00 | 0.00 | 67 | 1018.4 |
| 20260906154323 | 74 | 112 | 2.0 | 10.0 | 0.00 | 0.00 | 0.00 | 68 | 1018.5 |
| 20260906153322 | 75 | 105 | 3.0 | 8.0 | 0.00 | 0.00 | 0.00 | 67 | 1018.5 |
| 20260906152321 | 74 | 103 | 1.0 | 10.0 | 0.00 | 0.00 | 0.00 | 72 | 1018.5 |
| 20260906151320 | 75 | 103 | 6.0 | 13.0 | 0.00 | 0.00 | 0.00 | 71 | 1018.5 |
| 20260906150319 | 74 | 105 | 4.0 | 13.0 | 0.00 | 0.00 | 0.00 | 70 | 1018.5 |
| 20260906145247 | 74 | 108 | 4.0 | 8.0 | 0.00 | 0.00 | 0.00 | 73 | 1018.5 |
| 20260906144215 | 72 | 78 | 2.0 | 4.0 | 0.00 | 0.00 | 0.00 | 81 | 1018.5 |
| 20260906143214 | 71 | 111 | 2.0 | 4.0 | 0.00 | 0.00 | 0.00 | 81 | 1018.4 |
| 20260906142213 | 70 | 113 | 2.0 | 5.0 | 0.00 | 0.00 | 0.00 | 82 | 1018.4 |
| 20260906141212 | 71 | 132 | 2.0 | 5.0 | 0.00 | 0.00 | 0.00 | 81 | 1018.1 |
| 20260906140211 | 71 | 104 | 2.0 | 5.0 | 0.00 | 0.00 | 0.00 | 80 | 1018.1 |
| 20260906135211 | 70 | 24 | 1.0 | 2.0 | 0.00 | 0.00 | 0.00 | 84 | 1018.1 |
| 20260906134210 | 70 | 88 | 1.0 | 2.0 | 0.00 | 0.00 | 0.00 | 82 | 1018.1 |
| 20260906133209 | 69 | 207 | 1.0 | 2.0 | 0.00 | 0.00 | 0.00 | 87 | 1018.1 |
| 20260906132137 | 67 | 139 | 1.0 | 2.0 | 0.00 | 0.00 | 0.00 | 89 | 1018.1 |
| 20260906131135 | 66 | 225 | 1.0 | 2.0 | 0.00 | 0.00 | 0.00 | 97 | 1017.7 |
| 20260906130134 | 65 | 225 | 0.0 | 0.0 | 0.00 | 0.00 | 0.00 | 97 | 1017.7 |
| 20260906125133 | 63 | 225 | 0.0 | 2.0 | 0.00 | 0.00 | 0.00 | 97 | 1017.6 |
| 20260906124132 | 62 | 225 | 0.0 | 2.0 | 0.00 | 0.00 | 0.00 | 97 | 1017.6 |
| 20260906123100 | 59 | 225 | 0.0 | 2.0 | 0.00 | 0.00 | 0.00 | 97 | 1017.2 |
| 20260906122100 | 57 | 225 | 0.0 | 0.0 | 0.00 | 0.00 | 0.00 | 97 | 1017.2 |
| 20260906121059 | 56 | 225 | 0.0 | 0.0 | 0.00 | 0.00 | 0.00 | 97 | 1017.1 |
| 20260906120027 | 55 | 225 | 0.0 | 0.0 | 0.00 | 0.00 | 0.00 | 97 | 1016.8 |
| 20260906115026 | 55 | 225 | 0.0 | 0.0 | 0.00 | 0.00 | 0.00 | 97 | 1017.1 |
| 20260906114025 | 55 | 225 | 0.0 | 0.0 | 0.00 | 0.00 | 0.00 | 96 | 1016.8 |
| 20260906113023 | 55 | 225 | 0.0 | 0.0 | 0.00 | 0.00 | 0.00 | 96 | 1016.8 |
| 20260906112022 | 55 | 225 | 0.0 | 0.0 | 0.00 | 0.00 | 0.00 | 96 | 1016.8 |
| 20260906111021 | 55 | 225 | 0.0 | 0.0 | 0.00 | 0.00 | 0.00 | 96 | 1016.8 |
| 20260906110020 | 55 | 225 | 0.0 | 0.0 | 0.00 | 0.00 | 0.00 | 97 | 1016.5 |
| 20260906104917 | 55 | 225 | 0.0 | 0.0 | 0.00 | 0.00 | 0.00 | 96 | 1016.2 |
| 20260906103917 | 55 | 225 | 0.0 | 2.0 | 0.00 | 0.00 | 0.00 | 96 | 1016.2 |
| 20260906102916 | 56 | 225 | 0.0 | 2.0 | 0.00 | 0.00 | 0.00 | 96 | 1016.6 |
| 20260906101915 | 56 | 225 | 1.0 | 2.0 | 0.00 | 0.00 | 0.00 | 97 | 1016.6 |
| 20260906100844 | 56 | 230 | 1.0 | 2.0 | 0.00 | 0.00 | 0.00 | 97 | 1016.6 |
| 20260906095843 | 55 | 273 | 0.0 | 0.0 | 0.00 | 0.01 | 0.00 | 97 | 1016.6 |
| 20260906094811 | 55 | 273 | 0.0 | 1.0 | 0.00 | 0.01 | 0.00 | 96 | 1016.6 |
| 20260906093810 | 55 | 273 | 0.0 | 1.0 | 0.00 | 0.01 | 0.00 | 96 | 1016.2 |
| 20260906092809 | 55 | 273 | 0.0 | 1.0 | 0.00 | 0.01 | 0.00 | 96 | 1016.2 |
| 20260906091808 | 56 | 273 | 0.0 | 1.0 | 0.00 | 0.01 | 0.00 | 96 | 1016.3 |
| 20260906090808 | 56 | 273 | 0.0 | 0.0 | 0.00 | 0.01 | 0.00 | 96 | 1016.3 |
| 20260906085807 | 56 | 273 | 0.0 | 0.0 | 0.00 | 0.01 | 0.00 | 96 | 1016.3 |
| 20260906084806 | 56 | 273 | 0.0 | 1.0 | 0.00 | 0.01 | 0.00 | 96 | 1016.3 |
| 20260906083806 | 56 | 273 | 0.0 | 2.0 | 0.00 | 0.01 | 0.00 | 96 | 1016.3 |
| 20260906082805 | 56 | 278 | 2.0 | 2.0 | 0.00 | 0.01 | 0.00 | 96 | 1016.3 |
| 20260906081804 | 56 | 75 | 0.0 | 1.0 | 0.00 | 0.01 | 0.00 | 95 | 1016.0 |
| 20260906080803 | 56 | 75 | 0.0 | 0.0 | 0.00 | 0.01 | 0.00 | 95 | 1016.0 |
| 20260906075802 | 57 | 75 | 0.0 | 2.0 | 0.00 | 0.01 | 0.00 | 95 | 1016.0 |
| 20260906074800 | 57 | 75 | 0.0 | 2.0 | 0.00 | 0.01 | 0.00 | 95 | 1015.7 |
| 20260906073728 | 57 | 75 | 0.0 | 0.0 | 0.00 | 0.01 | 0.00 | 95 | 1015.7 |
| 20260906072727 | 58 | 75 | 0.0 | 0.0 | 0.00 | 0.01 | 0.00 | 95 | 1015.8 |
| 20260906071655 | 58 | 75 | 0.0 | 0.0 | 0.00 | 0.01 | 0.00 | 94 | 1015.8 |
| 20260906070654 | 58 | 75 | 0.0 | 0.0 | 0.00 | 0.01 | 0.00 | 95 | 1015.8 |
| 20260906065653 | 59 | 75 | 0.0 | 2.0 | 0.00 | 0.01 | 0.00 | 95 | 1015.8 |
| 20260906064652 | 59 | 75 | 0.0 | 2.0 | 0.00 | 0.01 | 0.00 | 96 | 1015.5 |
| 20260906063621 | 59 | 79 | 1.0 | 2.0 | 0.00 | 0.01 | 0.00 | 96 | 1015.5 |
| 20260906062620 | 59 | 71 | 0.0 | 2.0 | 0.00 | 0.01 | 0.00 | 96 | 1015.8 |
| 20260906061619 | 58 | 71 | 0.0 | 2.0 | 0.00 | 0.01 | 0.00 | 96 | 1015.8 |
| 20260906060618 | 59 | 46 | 1.0 | 1.0 | 0.00 | 0.01 | 0.00 | 95 | 1015.8 |
| 20260906055617 | 59 | 46 | 1.0 | 2.0 | 0.00 | 0.01 | 0.00 | 95 | 1015.8 |
| 20260906054616 | 59 | 51 | 1.0 | 4.0 | 0.00 | 0.01 | 0.00 | 96 | 1015.8 |
| 20260906053614 | 58 | 55 | 2.0 | 4.0 | 0.00 | 0.01 | 0.00 | 96 | 1015.4 |
| 20260906052613 | 58 | 40 | 1.0 | 2.0 | 0.00 | 0.01 | 0.00 | 95 | 1015.4 |
| 20260906051541 | 58 | 41 | 1.0 | 2.0 | 0.00 | 0.05 | 0.00 | 95 | 1015.7 |
| 20260906050540 | 58 | 16 | 0.0 | 0.0 | 0.00 | 0.07 | 0.00 | 95 | 1015.7 |
| 20260906045540 | 59 | 17 | 0.0 | 3.0 | 0.00 | 0.07 | 0.00 | 95 | 1015.8 |
| 20260906044508 | 59 | 16 | 1.0 | 3.0 | 0.00 | 0.07 | 0.00 | 94 | 1015.8 |
| 20260906043507 | 59 | 80 | 1.0 | 2.0 | 0.00 | 0.07 | 0.00 | 94 | 1015.8 |
| 20260906042506 | 59 | 80 | 0.0 | 1.0 | 0.00 | 0.07 | 0.00 | 95 | 1015.8 |
| 20260906041505 | 59 | 80 | 0.0 | 0.0 | 0.00 | 0.07 | 0.00 | 95 | 1015.8 |
| 20260906040432 | 59 | 80 | 0.0 | 0.0 | 0.00 | 0.09 | 0.00 | 95 | 1015.8 |
| 20260906035431 | 59 | 80 | 0.0 | 0.0 | 0.00 | 0.11 | 0.09 | 94 | 1015.8 |
| 20260906034400 | 59 | 80 | 0.0 | 0.0 | 0.00 | 0.11 | 0.09 | 94 | 1015.8 |
| 20260906033359 | 60 | 80 | 0.0 | 0.0 | 0.00 | 0.11 | 0.09 | 94 | 1015.5 |
| 20260906032358 | 60 | 80 | 0.0 | 0.0 | 0.00 | 0.11 | 0.09 | 93 | 1015.8 |
| 20260906031357 | 60 | 80 | 0.0 | 0.0 | 0.00 | 0.11 | 0.09 | 93 | 1015.8 |
| 20260906030354 | 60 | 80 | 0.0 | 0.0 | 0.00 | 0.11 | 0.09 | 94 | 1015.8 |
| 20260906025353 | 60 | 80 | 0.0 | 2.0 | 0.00 | 0.11 | 0.09 | 93 | 1015.5 |
| 20260906024352 | 60 | 80 | 0.0 | 2.0 | 0.00 | 0.11 | 0.09 | 92 | 1015.4 |
| 20260906023351 | 61 | 80 | 1.0 | 1.0 | 0.00 | 0.11 | 0.09 | 92 | 1015.4 |
| 20260906022319 | 61 | 80 | 0.0 | 2.0 | 0.00 | 0.11 | 0.09 | 91 | 1015.4 |
| 20260906021318 | 61 | 80 | 0.0 | 2.0 | 0.00 | 0.11 | 0.09 | 90 | 1015.1 |
| 20260906020317 | 62 | 80 | 2.0 | 2.0 | 0.00 | 0.11 | 0.09 | 90 | 1015.1 |
| 20260906015316 | 62 | 80 | 0.0 | 0.0 | 0.00 | 0.11 | 0.09 | 88 | 1015.1 |
| 20260906014315 | 63 | 80 | 0.0 | 0.0 | 0.00 | 0.11 | 0.09 | 87 | 1015.1 |
| 20260906013314 | 63 | 80 | 0.0 | 0.0 | 0.00 | 0.11 | 0.09 | 86 | 1015.1 |
| 20260906012314 | 64 | 80 | 0.0 | 2.0 | 0.00 | 0.11 | 0.09 | 85 | 1014.8 |
| 20260906011313 | 64 | 80 | 0.0 | 2.0 | 0.00 | 0.11 | 0.09 | 84 | 1014.8 |
| 20260906010312 | 64 | 85 | 2.0 | 2.0 | 0.00 | 0.11 | 0.09 | 83 | 1014.8 |
| 20260906005310 | 65 | 85 | 0.0 | 0.0 | 0.00 | 0.11 | 0.09 | 82 | 1014.8 |
| 20260906004310 | 66 | 85 | 0.0 | 0.0 | 0.00 | 0.11 | 0.09 | 82 | 1014.8 |
| 20260906003238 | 67 | 85 | 0.0 | 0.0 | 0.00 | 0.11 | 0.09 | 80 | 1014.8 |
| 20260906002237 | 68 | 85 | 0.0 | 1.0 | 0.00 | 0.11 | 0.09 | 79 | 1014.9 |
| 20260906001236 | 69 | 85 | 0.0 | 2.0 | 0.00 | 0.11 | 0.09 | 75 | 1014.9 |
| 20260906000205 | 69 | 85 | 2.0 | 3.0 | 0.00 | 0.11 | 0.09 | 74 | 1014.9 |
| 20260905235204 | 70 | 85 | 0.0 | 4.0 | 0.00 | 0.11 | 0.09 | 72 | 1014.6 |
| 20260905234203 | 71 | 93 | 2.0 | 4.0 | 0.00 | 0.11 | 0.09 | 71 | 1014.6 |
| 20260905233202 | 71 | 110 | 2.0 | 6.0 | 0.00 | 0.11 | 0.09 | 73 | 1014.6 |
| 20260905232201 | 71 | 96 | 2.0 | 6.0 | 0.00 | 0.11 | 0.09 | 74 | 1014.6 |
| 20260905231200 | 71 | 72 | 2.0 | 8.0 | 0.00 | 0.11 | 0.09 | 74 | 1014.6 |
| 20260905230200 | 71 | 80 | 1.0 | 9.0 | 0.00 | 0.11 | 0.09 | 75 | 1014.3 |
| 20260905225159 | 72 | 58 | 3.0 | 9.0 | 0.00 | 0.11 | 0.09 | 73 | 1014.3 |
| 20260905224158 | 72 | 66 | 4.0 | 8.0 | 0.00 | 0.11 | 0.09 | 74 | 1014.3 |
| 20260905223126 | 73 | 66 | 4.0 | 11.0 | 0.00 | 0.11 | 0.09 | 73 | 1014.0 |
| 20260905222125 | 74 | 74 | 4.0 | 11.0 | 0.00 | 0.11 | 0.09 | 70 | 1014.0 |
| 20260905221125 | 74 | 81 | 4.0 | 12.0 | 0.00 | 0.11 | 0.09 | 70 | 1014.0 |